AXM6326 WMKK-WMKL

Flight info

Callsign AXM6326
Flight time 0h 45m
Altitude 30000
Route ATIMU1F ATIMU Y506 VPG W525 KAPKO KAPKO1E
Aircraft A320/M-SDE3FGHIRWY/LB1

Departure

Time 2026-04-16 11:52
Airport Kuala Lumpur International Airport (WMKK)

Arrival

Time 2026-04-16 12:37
Airport Langkawi International Airport (WMKL)
Time Latitude Longitude Altitude Speed Heading
2026-04-16 11:35 2.73769 101.68477 42 ft 0 kts 146°
2026-04-16 11:39 2.73781 101.68469 42 ft 4 kts 148°
2026-04-16 11:40 2.73804 101.68458 39 ft 4 kts 184°
2026-04-16 11:40 2.73820 101.68467 42 ft 4 kts 236°
2026-04-16 11:40 2.73824 101.68474 42 ft 0 kts 236°
2026-04-16 11:45 2.73824 101.68472 42 ft 2 kts 236°
2026-04-16 11:45 2.73811 101.68417 42 ft 14 kts 273°
2026-04-16 11:45 2.73768 101.68320 42 ft 17 kts 236°
2026-04-16 11:46 2.73696 101.68213 41 ft 20 kts 236°
2026-04-16 11:46 2.73687 101.68129 37 ft 10 kts 247°
2026-04-16 11:46 2.73606 101.68100 37 ft 18 kts 151°
2026-04-16 11:46 2.73498 101.68174 38 ft 20 kts 146°
2026-04-16 11:47 2.73378 101.68255 38 ft 22 kts 145°
2026-04-16 11:47 2.73248 101.68341 38 ft 23 kts 146°
2026-04-16 11:47 2.73110 101.68435 38 ft 25 kts 146°
2026-04-16 11:47 2.72965 101.68533 38 ft 26 kts 146°
2026-04-16 11:48 2.72812 101.68636 38 ft 27 kts 146°
2026-04-16 11:48 2.72652 101.68742 38 ft 28 kts 146°
2026-04-16 11:48 2.72487 101.68854 38 ft 29 kts 146°
2026-04-16 11:48 2.72322 101.68965 39 ft 29 kts 146°
2026-04-16 11:49 2.72159 101.69074 39 ft 27 kts 145°
2026-04-16 11:49 2.71999 101.69182 39 ft 28 kts 145°
2026-04-16 11:49 2.71858 101.69278 39 ft 21 kts 146°
2026-04-16 11:49 2.71761 101.69296 39 ft 14 kts 228°
2026-04-16 11:50 2.71769 101.69209 39 ft 12 kts 295°
2026-04-16 11:50 2.71819 101.69120 39 ft 13 kts 301°
2026-04-16 11:50 2.71865 101.69063 39 ft 0 kts 325°
2026-04-16 11:51 2.71901 101.69039 39 ft 31 kts 325°
2026-04-16 11:51 2.72310 101.68761 38 ft 107 kts 326°
2026-04-16 11:51 2.73097 101.68231 39 ft 164 kts 326°
2026-04-16 11:51 2.74104 101.67558 506 ft 174 kts 326°
2026-04-16 11:52 2.75103 101.66887 1198 ft 173 kts 327°
2026-04-16 11:52 2.76024 101.66147 1859 ft 175 kts 303°
2026-04-16 11:52 2.76317 101.64935 2195 ft 194 kts 265°
2026-04-16 11:52 2.76278 101.63512 2455 ft 218 kts 268°
2026-04-16 11:53 2.76266 101.61881 2789 ft 249 kts 269°
2026-04-16 11:53 2.76269 101.60072 3267 ft 269 kts 270°
2026-04-16 11:53 2.76285 101.58167 4055 ft 277 kts 270°
2026-04-16 11:53 2.76393 101.56228 4924 ft 282 kts 279°
2026-04-16 11:54 2.76946 101.54343 5785 ft 284 kts 293°
2026-04-16 11:54 2.77736 101.52516 6644 ft 288 kts 294°
2026-04-16 11:54 2.78539 101.50670 7485 ft 291 kts 294°
2026-04-16 11:54 2.79352 101.48805 8326 ft 294 kts 294°
2026-04-16 11:55 2.80174 101.46920 9169 ft 297 kts 294°
2026-04-16 11:55 2.81005 101.45013 9968 ft 301 kts 294°
2026-04-16 11:55 2.81855 101.43052 10402 ft 319 kts 294°
2026-04-16 11:55 2.82767 101.40950 10722 ft 337 kts 294°
2026-04-16 11:56 2.83712 101.38777 11333 ft 344 kts 295°
2026-04-16 11:56 2.84910 101.36692 12019 ft 348 kts 307°
2026-04-16 11:56 2.86523 101.34874 12706 ft 352 kts 316°
2026-04-16 11:56 2.88267 101.33138 13399 ft 356 kts 315°
2026-04-16 11:57 2.90032 101.31378 14032 ft 360 kts 315°
2026-04-16 11:57 2.91810 101.29602 14625 ft 363 kts 315°
2026-04-16 11:57 2.93604 101.27801 15229 ft 367 kts 315°
2026-04-16 11:57 2.95413 101.25987 15825 ft 370 kts 315°
2026-04-16 11:58 2.96484 101.24913 16171 ft 372 kts 315°
2026-04-16 11:58 2.97668 101.23642 16503 ft 375 kts 312°
2026-04-16 11:58 2.99461 101.21734 17109 ft 377 kts 314°
2026-04-16 11:58 3.01323 101.19873 17696 ft 380 kts 315°
2026-04-16 11:59 3.03233 101.18022 18251 ft 384 kts 316°
2026-04-16 11:59 3.05160 101.16158 18733 ft 387 kts 316°
2026-04-16 11:59 3.07096 101.14269 19235 ft 390 kts 315°
2026-04-16 11:59 3.09034 101.12355 19738 ft 393 kts 315°
2026-04-16 12:00 3.10953 101.10446 20225 ft 396 kts 314°
2026-04-16 12:00 3.12904 101.08491 20723 ft 399 kts 314°
2026-04-16 12:00 3.14869 101.06519 21215 ft 401 kts 314°
2026-04-16 12:00 3.16845 101.04533 21709 ft 404 kts 314°
2026-04-16 12:01 3.18839 101.02529 22191 ft 408 kts 314°
2026-04-16 12:01 3.20976 101.00652 22672 ft 412 kts 324°
2026-04-16 12:01 3.23467 100.99220 23148 ft 416 kts 336°
2026-04-16 12:02 3.29130 100.97987 23955 ft 422 kts 359°
2026-04-16 12:02 3.32081 100.97996 24343 ft 425 kts
2026-04-16 12:02 3.35044 100.98011 24726 ft 427 kts
2026-04-16 12:02 3.38026 100.98025 25115 ft 430 kts
2026-04-16 12:03 3.41022 100.98036 25501 ft 432 kts
2026-04-16 12:03 3.44036 100.98045 25867 ft 434 kts
2026-04-16 12:03 3.47062 100.98055 26239 ft 436 kts
2026-04-16 12:03 3.50103 100.98066 26605 ft 438 kts
2026-04-16 12:04 3.53157 100.98077 26958 ft 440 kts
2026-04-16 12:04 3.56223 100.98088 27304 ft 442 kts
2026-04-16 12:04 3.59312 100.98100 27646 ft 444 kts
2026-04-16 12:04 3.62416 100.98111 27989 ft 447 kts
2026-04-16 12:05 3.65523 100.97969 28336 ft 448 kts 352°
2026-04-16 12:05 3.68578 100.97322 28641 ft 450 kts 342°
2026-04-16 12:05 3.71502 100.96187 28954 ft 452 kts 335°
2026-04-16 12:05 3.74344 100.94913 29269 ft 454 kts 335°
2026-04-16 12:06 3.77239 100.93621 29584 ft 457 kts 336°
2026-04-16 12:06 3.80146 100.92328 29798 ft 458 kts 336°
2026-04-16 12:06 3.83020 100.91052 29825 ft 443 kts 336°
2026-04-16 12:06 3.85792 100.89824 29821 ft 429 kts 336°
2026-04-16 12:07 3.91188 100.87428 29821 ft 421 kts 336°
2026-04-16 12:07 3.96531 100.85046 29819 ft 420 kts 336°
2026-04-16 12:08 4.01871 100.82672 29815 ft 420 kts 336°
2026-04-16 12:08 4.07200 100.80298 29814 ft 419 kts 336°
2026-04-16 12:09 4.12536 100.77923 29813 ft 419 kts 336°
2026-04-16 12:09 4.17865 100.75551 29811 ft 419 kts 336°
2026-04-16 12:10 4.23073 100.73214 29807 ft 419 kts 335°
2026-04-16 12:10 4.28382 100.70841 29799 ft 418 kts 335°
2026-04-16 12:11 4.33694 100.68452 29796 ft 418 kts 335°
2026-04-16 12:11 4.39004 100.66064 29801 ft 419 kts 335°
2026-04-16 12:12 4.44322 100.63680 29798 ft 418 kts 335°
2026-04-16 12:12 4.49630 100.61377 29810 ft 419 kts 336°
2026-04-16 12:13 4.54997 100.59110 29802 ft 419 kts 337°
2026-04-16 12:13 4.60368 100.56836 29798 ft 419 kts 336°
2026-04-16 12:14 4.65726 100.54543 29800 ft 419 kts 336°
2026-04-16 12:14 4.71083 100.52250 29798 ft 418 kts 336°
2026-04-16 12:15 4.76437 100.49958 29796 ft 418 kts 336°
2026-04-16 12:15 4.81790 100.47674 29794 ft 418 kts 336°
2026-04-16 12:16 4.87107 100.45300 29800 ft 418 kts 334°
2026-04-16 12:16 4.92361 100.42801 29796 ft 418 kts 334°
2026-04-16 12:17 4.94982 100.41546 29629 ft 415 kts 334°
2026-04-16 12:17 4.97576 100.40314 29365 ft 410 kts 334°
2026-04-16 12:17 5.00144 100.39105 29084 ft 405 kts 334°
2026-04-16 12:17 5.02689 100.37912 28637 ft 402 kts 334°
2026-04-16 12:18 5.05214 100.36729 28203 ft 399 kts 334°
2026-04-16 12:18 5.07721 100.35556 27766 ft 396 kts 334°
2026-04-16 12:18 5.10200 100.34394 27328 ft 394 kts 334°
2026-04-16 12:18 5.12681 100.33231 26887 ft 391 kts 334°
2026-04-16 12:19 5.15143 100.32078 26433 ft 389 kts 334°
2026-04-16 12:19 5.17592 100.30930 25977 ft 388 kts 334°
2026-04-16 12:19 5.20033 100.29785 25511 ft 387 kts 334°
2026-04-16 12:19 5.22473 100.28641 25028 ft 387 kts 334°
2026-04-16 12:20 5.24904 100.27501 24550 ft 386 kts 334°
2026-04-16 12:20 5.27340 100.26359 24047 ft 386 kts 334°
2026-04-16 12:20 5.29745 100.25229 23558 ft 387 kts 334°
2026-04-16 12:20 5.32180 100.24075 22997 ft 387 kts 334°
2026-04-16 12:21 5.34603 100.22916 22487 ft 385 kts 334°
2026-04-16 12:21 5.37014 100.21757 22012 ft 384 kts 334°
2026-04-16 12:21 5.39418 100.20601 21527 ft 382 kts 334°
2026-04-16 12:21 5.41808 100.19451 21048 ft 380 kts 334°
2026-04-16 12:22 5.44191 100.18305 20575 ft 379 kts 334°
2026-04-16 12:22 5.46569 100.17165 20096 ft 378 kts 334°
2026-04-16 12:22 5.48940 100.16032 19633 ft 377 kts 335°
2026-04-16 12:22 5.51304 100.14903 19166 ft 376 kts 335°
2026-04-16 12:23 5.52861 100.14158 18945 ft 372 kts 335°
2026-04-16 12:23 5.55204 100.13037 18518 ft 371 kts 335°
2026-04-16 12:23 5.57514 100.11931 18165 ft 367 kts 335°
2026-04-16 12:23 5.60588 100.10456 17545 ft 365 kts 335°
2026-04-16 12:24 5.62101 100.09731 17242 ft 363 kts 335°
2026-04-16 12:24 5.64375 100.08640 16825 ft 361 kts 335°
2026-04-16 12:24 5.66630 100.07556 16412 ft 358 kts 335°
2026-04-16 12:24 5.68865 100.06486 15941 ft 353 kts 335°
2026-04-16 12:25 5.71067 100.05433 15295 ft 347 kts 335°
2026-04-16 12:25 5.73244 100.04392 14880 ft 346 kts 335°
2026-04-16 12:25 5.75417 100.03350 14464 ft 345 kts 335°
2026-04-16 12:25 5.77578 100.02312 14115 ft 342 kts 335°
2026-04-16 12:26 5.79727 100.01281 13734 ft 341 kts 335°
2026-04-16 12:26 5.81862 100.00256 13269 ft 340 kts 335°
2026-04-16 12:26 5.83981 99.99239 12840 ft 338 kts 335°
2026-04-16 12:26 5.86091 99.98225 12441 ft 335 kts 335°
2026-04-16 12:27 5.88185 99.97219 12052 ft 332 kts 335°
2026-04-16 12:27 5.90266 99.96223 11661 ft 329 kts 335°
2026-04-16 12:27 5.92338 99.95232 11225 ft 328 kts 335°
2026-04-16 12:27 5.94366 99.94207 10857 ft 325 kts 328°
2026-04-16 12:28 5.96107 99.92765 10428 ft 326 kts 312°
2026-04-16 12:28 5.97410 99.90911 10049 ft 324 kts 302°
2026-04-16 12:28 5.98577 99.88993 9776 ft 317 kts 302°
2026-04-16 12:28 5.99711 99.87146 9397 ft 305 kts 302°
2026-04-16 12:29 6.00820 99.85348 8748 ft 301 kts 302°
2026-04-16 12:29 6.01907 99.83588 8240 ft 291 kts 302°
2026-04-16 12:29 6.02936 99.81913 7823 ft 280 kts 302°
2026-04-16 12:29 6.03944 99.80277 7408 ft 270 kts 302°
2026-04-16 12:30 6.04935 99.78669 7004 ft 271 kts 302°
2026-04-16 12:30 6.05931 99.77055 6586 ft 273 kts 302°
2026-04-16 12:30 6.06932 99.75428 6147 ft 275 kts 302°
2026-04-16 12:30 6.07939 99.73793 5691 ft 275 kts 302°
2026-04-16 12:31 6.08946 99.72155 5244 ft 276 kts 302°
2026-04-16 12:31 6.09957 99.70509 4803 ft 277 kts 302°
2026-04-16 12:31 6.10970 99.68863 4337 ft 278 kts 302°
2026-04-16 12:31 6.11899 99.67163 3827 ft 279 kts 295°
2026-04-16 12:32 6.12892 99.65494 3486 ft 273 kts 311°
2026-04-16 12:32 6.14286 99.64296 3416 ft 256 kts 330°
2026-04-16 12:32 6.15871 99.63614 3301 ft 242 kts 346°
2026-04-16 12:32 6.17508 99.63421 3122 ft 233 kts
2026-04-16 12:33 6.19086 99.63680 2886 ft 228 kts 18°
2026-04-16 12:33 6.20485 99.64330 2631 ft 215 kts 33°
2026-04-16 12:33 6.21692 99.65151 2368 ft 205 kts 34°
2026-04-16 12:33 6.22859 99.65949 2103 ft 201 kts 34°
2026-04-16 12:34 6.24010 99.66736 1844 ft 200 kts 33°
2026-04-16 12:34 6.25126 99.67499 1620 ft 188 kts 32°
2026-04-16 12:34 6.26158 99.68204 1372 ft 170 kts 33°
2026-04-16 12:34 6.27087 99.68838 1158 ft 154 kts 32°
2026-04-16 12:35 6.27948 99.69426 966 ft 146 kts 33°
2026-04-16 12:35 6.28784 99.69996 792 ft 144 kts 32°
2026-04-16 12:35 6.29606 99.70558 623 ft 142 kts 33°
2026-04-16 12:35 6.30421 99.71116 429 ft 141 kts 33°
2026-04-16 12:36 6.31223 99.71675 214 ft 140 kts 32°
2026-04-16 12:36 6.32024 99.72217 50 ft 134 kts 33°
2026-04-16 12:36 6.32707 99.72683 33 ft 97 kts 34°
2026-04-16 12:36 6.33149 99.72984 38 ft 65 kts 34°
2026-04-16 12:37 6.33499 99.73222 38 ft 56 kts 34°
2026-04-16 12:37 6.33792 99.73423 37 ft 42 kts 35°
2026-04-16 12:37 6.33923 99.73515 36 ft 15 kts 34°
2026-04-16 12:37 6.34014 99.73508 37 ft 16 kts 313°
2026-04-16 12:38 6.34070 99.73426 36 ft 14 kts 304°
2026-04-16 12:38 6.34117 99.73372 36 ft 2 kts 343°
2026-04-16 12:38 6.34138 99.73365 35 ft 6 kts 332°
2026-04-16 12:38 6.34165 99.73328 36 ft 4 kts 303°
2026-04-16 12:39 6.34172 99.73319 36 ft 1 kts 304°
2026-04-16 12:39 6.34174 99.73314 36 ft 0 kts 304°
2026-04-16 12:39 6.34175 99.73314 36 ft 0 kts 304°